Location: Banios
(43.0451°N, 0.2335°E)
Time: 12:46:21
(UTC+00:00)

A-11 Canister half - Pass Details

Date: 15 May 2021
Orbit: 1513 x 1686 km, 47.2° (Epoch: 14 June)

Event Time Altitude Azimuth Distance (km) Brightness Sun altitude
Rises 18:49:42 0° 291° (WNW) 4,658 14.9 3.5°
Reaches altitude 10° 18:52:43 10° 292° (WNW) 3,678 13.7 3.0°
Maximum altitude 19:02:01 89° 21° (NNE) 1,538 9.2 1.4°
Drops below altitude 10° 19:11:32 10° 114° (ESE) 3,759 10.4 -0.1°
Enters shadow 19:14:24 - 115° (ESE) 4,686 10.8 -0.6°
Sets 19:14:38 0° 115° (ESE) 4,765 - -0.6°
